N828WW KMTH-KISM

Flight info

Callsign N828WW
Flight time 0h 41m
Altitude 36000
Route FERAL JOKRS3
Aircraft C700/M-SBDGHM1RWXY/LB2

Departure

Time 2026-05-04 07:03
Airport Florida Keys Marathon International Airport (KMTH)

Arrival

Time 2026-05-04 07:44
Airport Kissimmee Gateway Airport (KISM)
Time Latitude Longitude Altitude Speed Heading
2026-05-04 06:46 24.72419 -81.05444 11 ft 0 kts 129°
2026-05-04 06:57 24.72383 -81.05497 11 ft 0 kts 354°
2026-05-04 06:58 24.72409 -81.05510 11 ft 8 kts 301°
2026-05-04 06:58 24.72381 -81.05604 11 ft 21 kts 248°
2026-05-04 06:59 24.72324 -81.05752 10 ft 9 kts 246°
2026-05-04 06:59 24.72323 -81.05755 10 ft 0 kts 248°
2026-05-04 07:01 24.72368 -81.05797 10 ft 0 kts 66°
2026-05-04 07:02 24.72374 -81.05782 10 ft 9 kts 66°
2026-05-04 07:02 24.72493 -81.05475 11 ft 101 kts 68°
2026-05-04 07:02 24.72878 -81.04479 205 ft 155 kts 62°
2026-05-04 07:03 24.73356 -81.03373 826 ft 169 kts 52°
2026-05-04 07:03 24.74380 -81.02737 1102 ft 170 kts
2026-05-04 07:03 24.75498 -81.03060 1432 ft 169 kts 337°
2026-05-04 07:03 24.76551 -81.03497 1993 ft 164 kts 334°
2026-05-04 07:04 24.77657 -81.03993 2475 ft 180 kts 335°
2026-05-04 07:04 24.78875 -81.04477 2934 ft 197 kts 338°
2026-05-04 07:04 24.80247 -81.05029 2949 ft 227 kts 337°
2026-05-04 07:04 24.81845 -81.05693 2865 ft 260 kts 333°
2026-05-04 07:05 24.83557 -81.06370 2708 ft 255 kts 336°
2026-05-04 07:05 24.85216 -81.07061 2660 ft 257 kts 335°
2026-05-04 07:05 24.86871 -81.07811 2713 ft 262 kts 335°
2026-05-04 07:05 24.88560 -81.08489 2701 ft 262 kts 338°
2026-05-04 07:06 24.91987 -81.09896 4854 ft 262 kts 335°
2026-05-04 07:06 24.93713 -81.10626 5836 ft 267 kts 335°
2026-05-04 07:06 24.95463 -81.11351 6803 ft 271 kts 335°
2026-05-04 07:07 24.97233 -81.12083 7839 ft 273 kts 335°
2026-05-04 07:08 25.10307 -81.17537 14030 ft 304 kts 332°
2026-05-04 07:09 25.12305 -81.18365 14779 ft 308 kts 332°
2026-05-04 07:09 25.14320 -81.19206 15557 ft 312 kts 332°
2026-05-04 07:09 25.16362 -81.20062 16314 ft 316 kts 331°
2026-05-04 07:09 25.18428 -81.20924 17129 ft 319 kts 331°
2026-05-04 07:10 25.20524 -81.21799 17939 ft 324 kts 331°
2026-05-04 07:10 25.22645 -81.22687 18709 ft 328 kts 331°
2026-05-04 07:12 25.38550 -81.29356 22026 ft 407 kts 332°
2026-05-04 07:12 25.41225 -81.30461 22000 ft 416 kts 332°
2026-05-04 07:12 25.43989 -81.31626 22002 ft 435 kts 332°
2026-05-04 07:12 25.46868 -81.32848 22000 ft 450 kts 333°
2026-05-04 07:13 25.49821 -81.34081 22001 ft 457 kts 333°
2026-05-04 07:13 25.52807 -81.35323 22006 ft 459 kts 333°
2026-05-04 07:13 25.55800 -81.36582 22006 ft 461 kts 333°
2026-05-04 07:14 25.66799 -81.41214 22005 ft 462 kts 333°
2026-05-04 07:14 25.69802 -81.42481 22016 ft 462 kts 333°
2026-05-04 07:15 25.72816 -81.43754 22011 ft 463 kts 333°
2026-05-04 07:15 25.75823 -81.45021 22005 ft 463 kts 333°
2026-05-04 07:15 25.79813 -81.46706 22013 ft 463 kts 333°
2026-05-04 07:15 25.81849 -81.47567 22011 ft 463 kts 333°
2026-05-04 07:16 25.84858 -81.48838 22013 ft 463 kts 333°
2026-05-04 07:16 25.88852 -81.50526 22018 ft 463 kts 333°
2026-05-04 07:16 25.90884 -81.51386 22018 ft 463 kts 333°
2026-05-04 07:16 25.93896 -81.52662 22023 ft 463 kts 333°
2026-05-04 07:17 25.96904 -81.53935 22017 ft 463 kts 333°
2026-05-04 07:17 25.99915 -81.55211 22016 ft 463 kts 333°
2026-05-04 07:17 26.02929 -81.56489 22023 ft 464 kts 332°
2026-05-04 07:17 26.05900 -81.57750 22020 ft 463 kts 332°
2026-05-04 07:18 26.08915 -81.59029 22018 ft 463 kts 332°
2026-05-04 07:18 26.11926 -81.60308 22018 ft 463 kts 332°
2026-05-04 07:18 26.14937 -81.61588 22018 ft 463 kts 332°
2026-05-04 07:18 26.17951 -81.62869 22018 ft 463 kts 332°
2026-05-04 07:19 26.20963 -81.64151 22020 ft 463 kts 332°
2026-05-04 07:19 26.23973 -81.65431 22020 ft 463 kts 332°
2026-05-04 07:19 26.26969 -81.66706 22022 ft 459 kts 332°
2026-05-04 07:19 26.29953 -81.67978 22023 ft 460 kts 332°
2026-05-04 07:20 26.32943 -81.69256 22055 ft 460 kts 332°
2026-05-04 07:20 26.35926 -81.70527 22035 ft 459 kts 332°
2026-05-04 07:20 26.38911 -81.71800 22037 ft 459 kts 332°
2026-05-04 07:20 26.41895 -81.73075 22038 ft 459 kts 332°
2026-05-04 07:22 26.64395 -81.76425 22044 ft 485 kts 355°
2026-05-04 07:22 26.67766 -81.76267 22033 ft 485 kts 355°
2026-05-04 07:23 26.71136 -81.76089 22036 ft 485 kts 355°
2026-05-04 07:23 26.74507 -81.75904 22056 ft 485 kts 355°
2026-05-04 07:23 26.77884 -81.75728 22065 ft 485 kts 355°
2026-05-04 07:23 26.81253 -81.75559 22059 ft 485 kts 355°
2026-05-04 07:24 26.84625 -81.75388 22064 ft 485 kts 355°
2026-05-04 07:24 26.87997 -81.75212 22064 ft 485 kts 355°
2026-05-04 07:24 26.91371 -81.75035 22063 ft 485 kts 355°
2026-05-04 07:24 26.94747 -81.74862 22067 ft 487 kts 355°
2026-05-04 07:25 26.98119 -81.74688 22058 ft 486 kts 355°
2026-05-04 07:26 27.21715 -81.73225 22052 ft 486 kts 356°
2026-05-04 07:27 27.25083 -81.73119 22049 ft 481 kts 351°
2026-05-04 07:27 27.28381 -81.73490 22042 ft 473 kts 343°
2026-05-04 07:27 27.31565 -81.74297 22046 ft 465 kts 337°
2026-05-04 07:27 27.34657 -81.75351 22049 ft 465 kts 336°
2026-05-04 07:28 27.37763 -81.76389 22053 ft 466 kts 336°
2026-05-04 07:28 27.40871 -81.77415 22059 ft 465 kts 336°
2026-05-04 07:28 27.43972 -81.78457 22060 ft 465 kts 336°
2026-05-04 07:28 27.47067 -81.79511 22053 ft 465 kts 336°
2026-05-04 07:29 27.50171 -81.80561 21876 ft 467 kts 336°
2026-05-04 07:29 27.53272 -81.81597 21128 ft 460 kts 336°
2026-05-04 07:29 27.56329 -81.82617 20525 ft 457 kts 336°
2026-05-04 07:29 27.59388 -81.83565 19922 ft 459 kts 340°
2026-05-04 07:30 27.62559 -81.84087 19321 ft 463 kts 347°
2026-05-04 07:30 27.65791 -81.84157 18709 ft 467 kts 355°
2026-05-04 07:30 27.69018 -81.83759 18063 ft 460 kts
2026-05-04 07:30 27.72066 -81.82933 17467 ft 445 kts 10°
2026-05-04 07:31 27.74967 -81.81767 16888 ft 444 kts 14°
2026-05-04 07:31 27.77852 -81.80547 16311 ft 437 kts 14°
2026-05-04 07:33 27.97030 -81.73699 12529 ft 396 kts
2026-05-04 07:33 27.99632 -81.73124 12151 ft 364 kts
2026-05-04 07:33 28.02015 -81.72604 11910 ft 336 kts
2026-05-04 07:33 28.04296 -81.72420 11494 ft 325 kts 350°
2026-05-04 07:34 28.06514 -81.72747 11121 ft 324 kts 347°
2026-05-04 07:34 28.08753 -81.73056 10704 ft 324 kts 349°
2026-05-04 07:34 28.10990 -81.73320 10249 ft 323 kts 349°
2026-05-04 07:34 28.13222 -81.73600 9786 ft 321 kts 349°
2026-05-04 07:35 28.15429 -81.73898 9358 ft 319 kts 349°
2026-05-04 07:35 28.17629 -81.74190 8949 ft 317 kts 350°
2026-05-04 07:35 28.19815 -81.74471 8545 ft 316 kts 351°
2026-05-04 07:35 28.21999 -81.74752 8126 ft 315 kts 351°
2026-05-04 07:36 28.24153 -81.75034 7735 ft 306 kts 351°
2026-05-04 07:36 28.26277 -81.75311 7345 ft 305 kts 352°
2026-05-04 07:38 28.37175 -81.68894 4680 ft 253 kts 65°
2026-05-04 07:38 28.37859 -81.67105 4345 ft 241 kts 65°
2026-05-04 07:38 28.38516 -81.65394 4047 ft 231 kts 66°
2026-05-04 07:38 28.39137 -81.63744 3746 ft 224 kts 67°
2026-05-04 07:39 28.39743 -81.62141 3465 ft 218 kts 66°
2026-05-04 07:39 28.40342 -81.60572 3174 ft 215 kts 66°
2026-05-04 07:39 28.40931 -81.59028 2881 ft 212 kts 66°
2026-05-04 07:39 28.41511 -81.57503 2600 ft 209 kts 66°
2026-05-04 07:40 28.42077 -81.55999 2317 ft 206 kts 68°
2026-05-04 07:40 28.42208 -81.54387 1976 ft 210 kts 96°
2026-05-04 07:40 28.41641 -81.52900 1981 ft 205 kts 122°
2026-05-04 07:40 28.40594 -81.51898 1995 ft 194 kts 143°
2026-05-04 07:41 28.39437 -81.51094 2018 ft 197 kts 143°
2026-05-04 07:41 28.38273 -81.50267 2012 ft 199 kts 143°
2026-05-04 07:41 28.37094 -81.49431 1842 ft 198 kts 143°
2026-05-04 07:41 28.35956 -81.48633 1578 ft 187 kts 143°
2026-05-04 07:42 28.34874 -81.47872 1330 ft 180 kts 143°
2026-05-04 07:42 28.33846 -81.47147 1096 ft 174 kts 143°
2026-05-04 07:42 28.32892 -81.46474 866 ft 149 kts 144°
2026-05-04 07:42 28.32067 -81.45902 661 ft 132 kts 144°
2026-05-04 07:43 28.31327 -81.45377 486 ft 120 kts 144°
2026-05-04 07:43 28.30640 -81.44886 335 ft 117 kts 144°
2026-05-04 07:43 28.29942 -81.44391 193 ft 121 kts 146°
2026-05-04 07:43 28.29231 -81.43886 96 ft 115 kts 147°
2026-05-04 07:44 28.28856 -81.43617 96 ft 12 kts 103°
2026-05-04 07:44 28.28869 -81.43539 95 ft 12 kts 44°
2026-05-04 07:44 28.28926 -81.43552 96 ft 8 kts 329°
2026-05-04 07:44 28.29009 -81.43614 95 ft 18 kts 322°
2026-05-04 07:45 28.29137 -81.43700 94 ft 15 kts 329°
2026-05-04 07:45 28.29199 -81.43743 94 ft 13 kts 329°
2026-05-04 07:45 28.29347 -81.43849 89 ft 29 kts 328°
2026-05-04 07:45 28.29414 -81.43922 91 ft 0 kts 275°
2026-05-04 07:49 28.29414 -81.43925 91 ft 3 kts 274°
2026-05-04 07:50 28.29401 -81.44001 91 ft 7 kts 224°
2026-05-04 07:50 28.29336 -81.43961 91 ft 20 kts 150°
2026-05-04 07:50 28.29207 -81.43873 94 ft 21 kts 148°
2026-05-04 07:50 28.29109 -81.43869 96 ft 13 kts 236°
2026-05-04 07:51 28.29120 -81.43965 93 ft 17 kts 327°
2026-05-04 07:51 28.29168 -81.44006 92 ft 1 kts 243°
2026-05-04 07:51 28.29162 -81.44047 91 ft 8 kts 307°
2026-05-04 07:51 28.29219 -81.44075 92 ft 0 kts 46°